Location: George Washington National Forest Helicopter Landing Site
(38.6463°N, 79.0851°W)
Time: 19:16:00
(UTC-04:00)

Tiros 1 - Pass Details

Date: 30 August 2019
Orbit: 631 x 664 km, 48.4° (Epoch: 17 September)

Event Time Altitude Azimuth Distance (km) Brightness Sun altitude
Exits shadow 05:24:21 27° 240° (WSW) 1,241 8.0 -15.4°
Maximum altitude 05:25:02 28° 225° (SW) 1,209 8.0 -15.3°
Drops below altitude 10° 05:29:00 10° 167° (SSE) 2,029 9.6 -14.6°
Sets 05:31:36 0° 155° (SSE) 2,941 10.6 -14.2°
